Retour au catalogue

STARLINK-36509

ActifCommunicationsVLEO
NORAD 67408·PAYLOAD·🇺🇸 United States

Lancé Jan 12, 2026 depuis Cape Canaveral Space Force Station

Loading…

Prochains Passages (prochaines 24 heures)

TLE

FraisSource: CelesTrak SupGP

Époque: Sep 15, 2026, 03:19 UTC

1 67408C 26005E   26258.13868056 -.00021294  00000+0 -77143-3 0  2580
2 67408  43.0010 247.9254 0001224 265.7353  35.8775 15.27581757    12

Suivez STARLINK-36509 en temps réel avec AllMySat

Download on the App Store